Meteo Giornale » Osservazioni meteo Italia » Lecce

ore: 04:55 - Osservazioni Meteo Lecce
Lat. 40° 14' N Lon. 18° 9' E Alt. 48 metri s.l.m.

sereno Europe/Rome

22 °C

Sereno

Temp. 24 Ore

22 °C

33 °C

Nord

1.8 Km/h

Dew point 21 °C

Umidità 94 %

Visibilità  10 Km

Il sole sorge alle ore 06:00

Il sole tramonta alle ore 19:42

Data e Ora Cielo e Fenomeni T °C DP °C Um. % Pres. hPa Vis. km Vento km/h
Oggi h: 04:55 sereno Sereno 22 21 94 1012 10 N 1.8
Oggi h: 03:55 sereno Sereno 23 22 94 1013 10 N 1.8
Oggi h: 02:55 sereno Sereno 23 22 94 1013 10 N 1.8
Oggi h: 01:55 sereno Sereno 23 23 100 1013 10 N 1.8
Oggi h: 00:55 sereno Sereno 23 23 100 1013 10 N 1.8
Ieri h: 23:55 sereno Sereno 25 24 94 1013 10 N 5.5
Ieri h: 22:55 sereno Sereno 25 24 94 1013 10 N 5.5
Ieri h: 21:55 sereno Sereno 26 24 88 1013 10 N 1.8
Ieri h: 20:55 sereno Sereno 27 24 83 1013 10 N 5.5
Ieri h: 19:55 sereno Sereno 29 23 70 1012 10 N 9.3
Ieri h: 18:55 sereno Sereno 31 22 58 1012 10 NE 11.1
Ieri h: 17:55 sereno Sereno 32 23 59 1012 10 NE 14.8
Ieri h: 16:55 poco_nuvoloso Poco Nuvoloso 33 23 55 1012 10 NE 13
Ieri h: 15:55 poco_nuvoloso Poco Nuvoloso 33 24 59 1012 10 N/NE 13
Ieri h: 14:55 poco_nuvoloso Poco Nuvoloso 33 24 59 1012 10 N/NE 16.7
Ieri h: 13:55 poco_nuvoloso Poco Nuvoloso 33 26 66 1012 10 N/NE 11.1
Ieri h: 12:55 nuvoloso Nuvoloso 32 22 55 1013 10 N 16.7
Ieri h: 11:55 poco_nuvoloso Poco Nuvoloso 32 24 62 1013 10 N 3.7
Ieri h: 10:55 poco_nuvoloso Poco Nuvoloso 30 26 79 1013 10 N 5.5
Ieri h: 09:55 nuvoloso Nuvoloso 28 25 83 1013 10 N 5.5
Ieri h: 08:55 nuvoloso Nuvoloso 26 25 94 1012 7 N 3.7
Ieri h: 07:55 foschia Foschia 24 24 100 1012 5 N 5.5
Ieri h: 07:28 foschia Foschia 24 24 100 1012 2 N 3.7
Ieri h: 06:55 nebbia Nebbia 23 23 100 1012 0.1 N 3.7